Airfield :
LOGIN :

Register | Disclaimer

   EN    FR    IT 

 










Legend :    VFR   Marginal VFR   IFR   Intensive IFR   Very Intensive IFR
Visi :
Ceiling :
>= 8 km
>= 3000ft
5 to 8 km
1000 to 3000 ft
1500m to 5 km
500 to 1000 ft
800 to 1500m
200 to 500 ft
< 800m
< 200 ft
Symbols :   Thunderstorms  Fog  Heavy snow  Heavy precipitations  Wind > 20 kt
SIGMETs :     Misc.  Thunderstorms  Icing  Turbulence  Mountain Waves  Volcanic Ashes







- Airport Elevation : 56 ft
- IATA code : ILY
- Download approach charts


EGPI - Islay

CURRENT METAR :
  • 171850Z 30008KT 280V360 9999 FEW016 SCT024 15/14 Q1005

EXPIRED METARs :
  • 171820Z 30009KT 9999 FEW004 SCT015 14/14 Q1005
  • 171750Z 29007KT 260V320 8000 -DZRA FEW003 BKN015 14/14 Q1005
  • 171720Z 28006KT 2800 -DZRA BR SCT004 SCT009 BKN014 14/14 Q1005
  • 171650Z 29008KT 2000 -DZ BR FEW003 BKN011 14/14 Q1005

Expired Forecast.
No reported NOTAMs for that airfield.



MET'MAP, your aeronautical weather chart ! - Copyright ORBIFLY December 2007 - Disclaimer

ORBIFLY MET'MAP TEAM :

Programming & Development : Alexandra Zaïnal
Concept & Development : Baudouin d'Aumeries
Co-Development & Prog : Marc-Olivier Méhu
Technical & hardware support : Manuel Goepfert

Contact : metmap@orbifly.com




SOURCES & CREDITS :

   NOAA